TimeEST,TemperatureF,Dew PointF,Humidity,Sea Level PressureIn,VisibilityMPH,Wind Direction,Wind SpeedMPH,Gust SpeedMPH,PrecipitationIn,Events,Conditions,WindDirDegrees,DateUTC
12:55 AM,22.8,19.9,89,30.52,10.0,Calm,Calm,-,N/A,,Clear,0,2013-01-11 05:55:00
1:55 AM,21.6,18.9,89,30.53,10.0,Calm,Calm,-,N/A,,Clear,0,2013-01-11 06:55:00
2:55 AM,20.1,17.8,91,30.52,10.0,ENE,3.5,-,N/A,,Clear,70,2013-01-11 07:55:00
3:55 AM,19.9,18.3,93,30.50,10.0,Calm,Calm,-,N/A,,Partly Cloudy,0,2013-01-11 08:55:00
4:55 AM,19.4,18.0,94,30.48,10.0,NE,3.5,-,N/A,,Clear,50,2013-01-11 09:55:00
5:55 AM,20.1,18.1,92,30.49,10.0,Calm,Calm,-,N/A,,Mostly Cloudy,0,2013-01-11 10:55:00
6:55 AM,21.6,19.6,92,30.49,10.0,Calm,Calm,-,N/A,,Mostly Cloudy,0,2013-01-11 11:55:00
7:55 AM,24.1,21.2,89,30.51,10.0,Calm,Calm,-,N/A,,Scattered Clouds,0,2013-01-11 12:55:00
8:55 AM,26.1,22.6,87,30.50,10.0,Calm,Calm,-,N/A,,Mostly Cloudy,0,2013-01-11 13:55:00
9:55 AM,28.4,24.4,85,30.48,10.0,Calm,Calm,-,N/A,,Partly Cloudy,0,2013-01-11 14:55:00
10:55 AM,30.7,25.0,79,30.46,10.0,Calm,Calm,-,N/A,,Scattered Clouds,0,2013-01-11 15:55:00
11:55 AM,32.7,25.3,74,30.42,10.0,Calm,Calm,-,N/A,,Mostly Cloudy,0,2013-01-11 16:55:00
12:55 PM,33.3,25.3,73,30.39,10.0,Calm,Calm,-,N/A,,Partly Cloudy,0,2013-01-11 17:55:00
1:28 PM,33.8,24.8,70,30.37,10.0,Calm,Calm,-,N/A,,Mostly Cloudy,0,2013-01-11 18:28:00
1:55 PM,34.0,25.5,71,30.36,10.0,Calm,Calm,-,N/A,,Overcast,0,2013-01-11 18:55:00
2:55 PM,34.3,26.6,73,30.35,10.0,West,3.5,-,N/A,,Overcast,280,2013-01-11 19:55:00
3:44 PM,33.8,26.6,75,30.33,10.0,Calm,Calm,-,N/A,,Overcast,0,2013-01-11 20:44:00
3:55 PM,34.3,27.1,75,30.32,10.0,Calm,Calm,-,0.00,,Overcast,0,2013-01-11 20:55:00
4:55 PM,32.2,31.3,96,30.30,7.0,Calm,Calm,-,0.06,Rain,Light Rain,0,2013-01-11 21:55:00
4:56 PM,32.0,32.0,100,30.30,8.0,Calm,Calm,-,N/A,,Overcast,0,2013-01-11 21:56:00
5:24 PM,32.0,32.0,100,30.28,9.0,Calm,Calm,-,N/A,Rain,Light Rain,0,2013-01-11 22:24:00
5:29 PM,32.0,32.0,100,30.28,6.0,Calm,Calm,-,N/A,Rain,Light Rain,0,2013-01-11 22:29:00
5:41 PM,32.0,32.0,100,30.27,6.0,Calm,Calm,-,N/A,,Overcast,0,2013-01-11 22:41:00
5:45 PM,32.0,32.0,100,30.27,7.0,Calm,Calm,-,N/A,,Overcast,0,2013-01-11 22:45:00
5:55 PM,32.4,31.8,98,30.27,8.0,Calm,Calm,-,0.01,,Overcast,0,2013-01-11 22:55:00
5:58 PM,32.0,32.0,100,30.27,9.0,Calm,Calm,-,N/A,,Overcast,0,2013-01-11 22:58:00
6:36 PM,32.0,32.0,100,30.27,10.0,Calm,Calm,-,N/A,,Overcast,0,2013-01-11 23:36:00
6:55 PM,32.4,31.6,97,30.25,5.0,Calm,Calm,-,0.00,Rain,Light Rain,0,2013-01-11 23:55:00
7:08 PM,32.0,32.0,100,30.25,5.0,Calm,Calm,-,N/A,Rain,Light Rain,0,2013-01-12 00:08:00
7:28 PM,32.0,32.0,100,30.25,6.0,Calm,Calm,-,N/A,Rain,Light Rain,0,2013-01-12 00:28:00
7:51 PM,32.0,32.0,100,30.23,5.0,Calm,Calm,-,N/A,Rain,Light Rain,0,2013-01-12 00:51:00
7:55 PM,32.2,31.6,98,30.23,4.0,NE,3.5,-,0.06,Rain,Light Rain,40,2013-01-12 00:55:00
8:10 PM,32.0,32.0,100,30.24,5.0,North,3.5,-,N/A,Rain,Light Rain,350,2013-01-12 01:10:00
8:42 PM,32.0,32.0,100,30.22,5.0,Calm,Calm,-,N/A,Rain,Light Rain,0,2013-01-12 01:42:00
8:46 PM,32.0,32.0,100,30.22,5.0,Calm,Calm,-,N/A,,Overcast,0,2013-01-12 01:46:00
8:55 PM,32.2,31.6,98,30.22,4.0,Calm,Calm,-,0.04,,Overcast,0,2013-01-12 01:55:00
9:23 PM,32.0,32.0,100,30.20,4.0,Calm,Calm,-,N/A,,Overcast,0,2013-01-12 02:23:00
9:25 PM,32.0,32.0,100,30.21,4.0,Calm,Calm,-,N/A,,Overcast,0,2013-01-12 02:25:00
9:55 PM,32.4,31.8,98,30.20,4.0,Calm,Calm,-,0.01,Rain,Light Rain,0,2013-01-12 02:55:00
10:10 PM,32.0,32.0,100,30.20,3.0,Calm,Calm,-,N/A,,Overcast,0,2013-01-12 03:10:00
10:55 PM,32.9,32.4,98,30.21,5.0,North,3.5,-,0.00,,Overcast,350,2013-01-12 03:55:00
11:04 PM,33.8,32.0,93,30.21,4.0,North,5.8,-,N/A,,Overcast,10,2013-01-12 04:04:00
11:12 PM,33.8,32.0,93,30.21,2.5,NNE,4.6,-,N/A,,Overcast,20,2013-01-12 04:12:00
11:19 PM,33.8,32.0,93,30.22,2.0,North,4.6,-,N/A,,Light Drizzle,10,2013-01-12 04:19:00
11:41 PM,33.8,32.0,93,30.20,2.0,NNE,3.5,-,N/A,Rain,Light Rain,30,2013-01-12 04:41:00
11:42 PM,33.8,32.0,93,30.20,1.8,NNE,3.5,-,N/A,Rain,Light Rain,30,2013-01-12 04:42:00
11:46 PM,33.8,32.0,93,30.20,1.8,NE,4.6,-,N/A,Rain,Light Rain,50,2013-01-12 04:46:00
11:55 PM,33.3,32.7,98,30.20,1.8,NNE,4.6,-,0.03,,Light Drizzle,30,2013-01-12 04:55:00
11:58 PM,33.8,32.0,93,30.20,2.0,NE,4.6,-,N/A,,Light Drizzle,40,2013-01-12 04:58:00